Location: Newark
(45.4333°N, 10.9833°E)
Time: 17:39:52
(UTC+00:00)

N. Korean satellite - Visible Passes

Search period start: 11 December 2019 00:00
Search period end: 21 December 2019 00:00
Orbit: 455 x 506 km, 97.2° (Epoch: 10 December)

Date Brightness Start Highest point End Pass type
(mag) Time Alt. Az. Time Alt. Az. Time Alt. Az.
11 Dec 8.6 04:36:59 10° NE 04:40:06 29° E 04:43:10 10° SSE visible
11 Dec 7.9 06:10:45 10° NNW 06:13:19 19° WNW 06:15:51 10° WSW visible
11 Dec 8.4 16:47:14 10° SSW 16:50:41 36° W 16:54:08 10° NNW visible
12 Dec 9.7 04:12:26 10° NE 04:14:29 15° E 04:16:30 10° SE visible
12 Dec 7.0 05:44:47 10° N 05:48:03 36° WNW 05:51:15 10° SW visible
12 Dec 6.9 16:21:30 10° S 16:25:11 76° WSW 16:28:54 10° NNW visible
13 Dec 6.3 05:19:09 10° N 05:22:41 78° WNW 05:26:08 10° SSW visible
13 Dec 10.1 17:31:59 10° WSW 17:33:29 12° W 17:34:58 10° WNW visible
14 Dec 7.5 04:53:48 10° NNE 04:57:13 47° E 05:00:34 10° S visible
14 Dec 9.3 17:04:52 10° SSW 17:07:51 23° W 17:10:49 10° NW visible
15 Dec 9.0 04:28:49 10° NE 04:31:40 23° E 04:34:28 10° SSE visible
15 Dec 7.6 06:02:10 10° NNW 06:04:59 23° WNW 06:07:46 10° WSW visible
15 Dec 7.9 16:38:45 10° S 16:42:17 45° W 16:45:50 10° NNW visible
16 Dec 10.0 04:04:43 10° ENE 04:06:00 12° E 04:07:17 10° ESE visible
16 Dec 6.7 05:36:19 10° N 05:39:41 45° WNW 05:42:59 10° SSW visible
16 Dec 6.6 16:13:09 10° SSE 16:16:50 85° E 16:20:30 10° N visible
17 Dec 6.5 05:10:46 10° NNE 05:14:17 82° ESE 05:17:43 10° S visible
17 Dec 9.9 17:22:54 10° SW 17:25:02 15° W 17:27:09 10° NW visible
18 Dec 8.0 04:45:32 10° NNE 04:48:47 36° E 04:51:59 10° SSE visible
18 Dec 8.9 16:56:13 10° SSW 16:59:25 28° W 17:02:36 10° NW visible
19 Dec 9.4 04:20:42 10° NE 04:23:11 18° E 04:25:39 10° SE visible
19 Dec 7.3 05:53:37 10° N 05:56:38 28° WNW 05:59:36 10° SW visible
19 Dec 7.3 16:30:17 10° S 16:33:54 57° W 16:37:29 10° NNW visible
20 Dec 6.4 05:27:51 10° N 05:31:17 58° WNW 05:34:39 10° SSW visible
20 Dec 6.6 16:04:50 10° SSE 16:08:27 67° ENE 16:12:04 10° N visible
